Skip Page Navigation
NASA JPL Caltech
NASA Logo - Jet Propulsion Laboratory + View the NASA Portal
+ Center for Near-Earth Object Studies
JPL Home Earth Solar System Stars & Galaxies Technology
JPL Solar System Dynamics
BODIES ORBITS EPHEMERIDES TOOLS PHYSICAL DATA DISCOVERY FAQ SITE MAP
IMPORTANT: The SSD Announcement email list is now available. Major changes are coming in the near future, including possible hostname and/or URL changes. To be notified of such changes, subscribe to this email list.

Please visit this page for more details.


JPL Small-Body Database Browser
Search: [ help ]  
266081 Villyket (2006 RP109)
Classification: Main-belt Asteroid          SPK-ID: 2266081
Ephemeris | Orbit Diagram | Orbital Elements | Mission Design | Physical Parameters | Discovery Circumstances | Close-Approach Data ]

[ show orbit diagram ]
Orbital Elements at Epoch 2458600.5 (2019-Apr-27.0) TDB
Reference: JPL 13 (heliocentric ecliptic J2000)
 Element Value Uncertainty (1-sigma)   Units 
e .07047827593846093 6.4526e-08  
a 2.194086321906614 1.3378e-08 au
q 2.039450900678477 1.4093e-07 au
i 3.39765478124358 5.8386e-06 deg
node 189.6555926137853 8.804e-05 deg
peri 21.57075922712708 9.4098e-05 deg
M 110.0549419646859 3.4943e-05 deg
tp 2458237.600775409707
(2018-Apr-29.10077541)
0.0001143 TDB
period 1187.077277224188
3.25
1.0857e-05
2.972e-08
d
yr
n .3032658504270327 2.7736e-09 deg/d
Q 2.348721743134751 1.4321e-08 au
  Orbit Determination Parameters
   # obs. used (total)      351  
   data-arc span      5349 days (14.64 yr)  
   first obs. used      2005-03-10  
   last obs. used      2019-11-01  
   planetary ephem.      DE431  
   SB-pert. ephem.      SB431-N16  
   condition code      0  
   norm. resid. RMS      .50498  
   source      ORB  
   producer      Otto Matic  
   solution date      2019-Dec-04 19:33:10  

Additional Information
 Earth MOID = 1.03424 au 
 Jupiter MOID = 2.61232 au 
 T_jup = 3.665 
[ show covariance matrix ]

Ephemeris | Orbit Diagram | Orbital Elements | Mission Design | Physical Parameters | Discovery Circumstances | Close-Approach Data ]

Physical Parameter Table
Parameter Symbol Value Units Sigma Reference Notes
absolute magnitude H 17.6   n/a MPO450145  

266081 Villyket           Discovered 2006 Sept. 14 by J. Masiero at Mauna Kea.
Violet R. Ket (b. 1985) is a Bulgarian-American writer, director, and producer for film and television. She is the wife of the discoverer.
NOTE: some special characters may not display properly (any characters within {} are an attempt to place the proper accent above a character)
Reference: MPC batch dated 2014-01-16Last Updated: 2014-01-21

[ show close-approach data ]
Ephemeris | Orbit Diagram | Orbital Elements | Mission Design | Physical Parameters | Discovery Circumstances | Close-Approach Data ]
ABOUT SSD CREDITS/AWARDS PRIVACY/COPYRIGHT GLOSSARY LINKS
FirstGov 2019-Dec-09 11:58 UT
(server date/time)  
NASA Home Page
Site Manager:   Ryan S. Park
Webmaster  Alan B. Chamberlin